Погода в Шарчино

Россия / Новосибирская область     54°16′07″N   82°32′25″E
темп.,
°C
ветер,
м/с
пор.,
м/с
влажн.,
%
обл.,
%
осадки,
мм/ч
давл.,
гПа
погр.,
м
16 июня, ср
ср1601:00+15зюз339185 1.7 101539
04:00+14зюз359214 0.0 101476
07:00+16з3892100 0.1 1014198
10:00+22зюз34675 0.0 1014416
13:00+26зюз464726 0.0 10131892
16:00+27зсз464718 0.0 10122272
19:00+25з37590 0.0 1011566
22:00+19зюз47796 0.1 1011112
17 июня, чт
чт1701:00+18зюз3457100 0.1 101170
04:00+15зюз358299 0.1 101173
07:00+16юз238752 0.7 1011115
10:00+20юз2370100 0.0 1010511
13:00+24зсз34605 0.2 10101369
16:00+25зсз575155 0.4 10092194
19:00+23зсз46665 1.0 1009948
22:00+18ссв12830 0.0 100911
18 июня, пт
пт1801:00+16ю22860 0.0 100913
04:00+15ююз33901 0.0 100829
07:00+17ююз248779 0.0 1007117
10:00+22юз456612 0.0 1007620
13:00+26зюз455444 0.0 10061292
16:00+28з244594 0.0 10041944
19:00+26юз356248 0.0 1003392
22:00+18юв5108746 0.4 1003134
19 июня, сб
сб1901:00+17ююв41182100 0.4 1002169
04:00+16ююв498390 0.1 1000130
07:00+18ююв5128239 0.1 999241
10:00+24ююв7116526 0.0 998510
13:00+28ююв6951100 0.0 9971412
16:00+29ю584964 0.0 9962054
19:00+28ююв486013 0.0 995306
22:00+21ююз3673100 0.3 99689
20 июня, вс
вс2001:00+18вюв228851 1.9 99615
04:00+15зюз4109559 0.1 998243
07:00+14юз6996100 1.2 1002423
10:00+14юз798014 0.0 1005618
13:00+17юз8105713 0.0 10071328
16:00+18юз710434 0.0 10082039
19:00+16юз5105525 0.0 10091836
22:00+11юз2269100 0.0 101111